OPS 4682 DEB, 38398

Orbit data source: Space-Track

OPS 4682 DEB, 38398 is space debris in LEO originally from a launch on Sat, 03 Apr 1965 UTC launched from the Air Force Western Test Range (AFWTR). Debris objects in space refer to the collection of defunct objects orbiting the Earth. Examples of debris include non-operational satellites, rocket bodies, and fragments generated from explosions, collisions, or faulty payload assembly.

Loading next visibility...
Identifier
38398, 1965-027DB
Orbit
LEO
Country
Flag of USUS
Related business
Manufacturer
Unknown
Mission
Spacecraft
Bus & Motor
Unknown
Mass
Unknown
Launch date (UTC)
1965-04-03 (61 years ago)
Launch vehicle
Unknown
Launch site
Air Force Western Test Range (AFWTR)
Object type
Payload
Rocket body
Debris
Shape & HBR
Unknown shape, 0.1 m
Radar Cross Section
Medium (>0.1 m² and <1 m²)

Expand to show TLE details & history
Last TLE update: 13 hours ago

TLE from 13 hours ago
0 OPS 4682 DEB
1 38398U 65027DB  26249.34055362  .00000269  00000-0  90525-3 0  9993
2 38398  90.2714  19.8227 0017010 250.7479 109.1802 12.97172338673772
Epoch: 2026-09-06T08:10Z
TLE epoch observation values (Epoch: 2026-09-06T08:10:23.832Z)
Latitude
0.00002°
Longitude
-88.21367°
Altitude
1,280.362 km
Speed
7.214 km/s
True Right ascension
01h 19m 17s
True Declination
0° 00' 00"
Sunlit
Object was in full shadow at epoch
Visualization orbit readout
Latitude
Unknown
Longitude
Unknown
Altitude
Unknown
Speed
Unknown
Apparent Right ascension
Unknown
Apparent Declination
Unknown
Sunlit
N/A
Visualization observer readout
Local Sidereal Time
13:29:41
Azimuth
Unknown
Elevation
Unknown
Doppler factor
Unknown
Orbital elements
Apogee altitude
1,283.327 km
Perigee altitude
1,257.307 km
Semi-major axis
7,648.454 km
Eccentricity
0.0017
Inclination
90.2714°
RAAN
19.8227°
Arg. of periapsis
250.7479°
True anomaly
109.36417°
Mean anomaly
109.1802°
Eccentric anomaly
109.2722°
Mean motion
3.24476 °/min
Orbital period
110.95 mins
BSTAR
0.00090525
Loading maneuver chart data...
Computing Atmospheric mass density...
Loading historical data...
Loading historical data...
Loading historical data...
Loading historical data...
Loading historical data...
Loading historical data...
Loading historical data...

Documentation

Showing up to 5 results
|